STARLINK-32232, 60431

Orbit data source: Space-Track

STARLINK-32232, 60431 is a payload satellite owned by SpaceX/Seattle (US) in LEO that was launched on Mon, 12 Aug 2024 UTC via an FALCON 9 launch vehicle from the Air Force Eastern Test Range (AFETR). Payload-class satellites include a variety of spacecraft equipped with specific instruments for various scientific and technological missions. These include communications satellites like Starlink; space stations such as the ISS; scientific satellites like the Hubble; Earth observation satellites from companies like Planet Labs, Umbra, and HawkEye 360; GPS; miniature CubeSats for education and research; and military/defense satellites.

Loading next visibility...
Identifier
60431, 2024-144G
Orbit
LEO
Country
Flag of USUS
Related business
Manufacturer
SpaceX/Seattle
Mission
Operational Commercial Communications
Bus & Motor
STARLINK V2M, Unknown motor
Mass
730 kg wet, ~700 kg dry
Launch date (UTC)
2024-08-12 (2 years ago)
Launch vehicle
FALCON 9
Launch site
Air Force Eastern Test Range (AFETR)
Object type
Payload
Rocket body
Debris
Shape & HBR
Box + 2 Pan, 17.7 m
Radar Cross Section
33.884 m², Large (>1 m²)

Expand to show TLE details & history
Last TLE update: 22 hours ago

TLE from 22 hours ago
0 STARLINK-32232
1 60431U 24144G   26171.00002315 -.00017077  00000-0 -50887-3 0  9992
2 60431  53.1607 102.0010 0001421  87.4185 217.7196 15.33559968  5870
Epoch: 2026-06-20T00:00Z
TLE epoch observation values (Epoch: 2026-06-20T00:00:02.000Z)
Latitude
-41.08813°
Longitude
153.25605°
Altitude
479.588 km
Speed
7.625 km/s
True Right ascension
04h 05m 56s
True Declination
-40° 54' 39"
Sunlit
Object was in daylight at epoch
Visualization orbit readout
Latitude
Unknown
Longitude
Unknown
Altitude
Unknown
Speed
Unknown
Apparent Right ascension
Unknown
Apparent Declination
Unknown
Sunlit
N/A
Visualization observer readout
Local Sidereal Time
08:32:49
Azimuth
Unknown
Elevation
Unknown
Doppler factor
Unknown
Orbital elements
Apogee altitude
466.43 km
Perigee altitude
464.485 km
Semi-major axis
6,843.595 km
Eccentricity
0.00014
Inclination
53.1607°
RAAN
102.001°
Arg. of periapsis
87.4185°
True anomaly
217.70964°
Mean anomaly
217.7196°
Eccentric anomaly
217.71462°
Mean motion
3.83369 °/min
Orbital period
93.9 mins
BSTAR
-0.00050887
Loading maneuver chart data...
Computing Atmospheric mass density...
Loading historical data...
Loading historical data...
Loading historical data...
Loading historical data...
Loading historical data...
Loading historical data...
Loading historical data...

Documentation

Showing up to 5 results
|